Location: Springville
(37.3745°N, 89.2676°W)
Time: 15:19:18
(UTC+00:00)

Cosmos 2227 Rocket - Pass Details

Date: 29 October 2020
Orbit: 838 x 846 km, 71.0° (Epoch: 04 December)

Event Time Altitude Azimuth Distance (km) Brightness Sun altitude
Rises 23:40:55 0° 343° (NNW) 3,404 5.4 -8.4°
Reaches altitude 10° 23:43:28 10° 350° (N) 2,467 4.6 -8.9°
Maximum altitude 23:48:55 47° 63° (ENE) 1,103 2.4 -10.0°
Drops below altitude 10° 23:54:20 10° 137° (SE) 2,457 4.3 -11.0°
Sets 23:56:52 0° 143° (SE) 3,389 5.1 -11.5°
